AAL194 EGLL-KPHX

Flight info

Callsign AAL194
Flight time N/A
Altitude 34000
Route ULTIB T420 TNT UL28 RODOL UM65 TENSO L603 BELOX DCT APSOV DCT SUNOT/M084F350 DCT 58N020W 58N030W 58N040W 57N050W DCT HOIST/N0491F360 DCT ELINU DCT YMT DCT SSM/N0481F380 J101 GRB DCT MCW DCT EAR DCT LAA J102 GUP EAGUL6
Aircraft B77L/H-SDE1E2E3FGHIJ2J3J4J5M1RWXY/LB1D1

Departure

Time N/A
Airport London Heathrow Airport (EGLL)

Arrival

Time 2026-05-06 05:59
Airport Phoenix Sky Harbor International Airport (KPHX)
Time Latitude Longitude Altitude Speed Heading
2026-05-05 23:36 54.35586 -59.15139 33658 ft 437 kts 243°
2026-05-05 23:36 54.34092 -59.19674 33667 ft 437 kts 243°
2026-05-05 23:36 54.31091 -59.28764 33662 ft 437 kts 243°
2026-05-05 23:37 54.28101 -59.37787 33658 ft 438 kts 242°
2026-05-05 23:37 54.25085 -59.46852 33650 ft 438 kts 242°
2026-05-05 23:38 54.22056 -59.55926 33692 ft 440 kts 242°
2026-05-05 23:38 54.20535 -59.60469 33849 ft 440 kts 242°
2026-05-05 23:38 54.19033 -59.64946 33999 ft 440 kts 242°
2026-05-05 23:39 54.17511 -59.69477 34136 ft 441 kts 242°
2026-05-05 23:39 54.15974 -59.74040 34267 ft 441 kts 242°
2026-05-05 23:39 54.14439 -59.78590 34391 ft 442 kts 242°
2026-05-05 23:39 54.12900 -59.83144 34530 ft 443 kts 242°
2026-05-05 23:40 54.11354 -59.87711 34660 ft 443 kts 242°
2026-05-05 23:40 54.09830 -59.92203 34798 ft 444 kts 241°
2026-05-05 23:40 54.08278 -59.96772 34916 ft 445 kts 241°
2026-05-05 23:40 54.06722 -60.01342 35041 ft 445 kts 241°
2026-05-05 23:41 54.05165 -60.05908 35165 ft 446 kts 241°
2026-05-05 23:41 54.03602 -60.10479 35298 ft 446 kts 241°
2026-05-05 23:41 54.02036 -60.15055 35421 ft 447 kts 241°
2026-05-05 23:41 54.00484 -60.19579 35520 ft 448 kts 241°
2026-05-05 23:42 53.97324 -60.28766 35607 ft 450 kts 241°
2026-05-05 23:42 53.94168 -60.37907 35606 ft 449 kts 240°
2026-05-05 23:43 53.91000 -60.47050 35614 ft 448 kts 240°
2026-05-05 23:43 53.87831 -60.56160 35605 ft 447 kts 240°
2026-05-05 23:44 53.84684 -60.65176 35605 ft 446 kts 240°
2026-05-05 23:44 53.81534 -60.74165 35601 ft 445 kts 240°
2026-05-05 23:45 53.78370 -60.83164 35601 ft 444 kts 240°
2026-05-05 23:45 53.75208 -60.92124 35592 ft 443 kts 240°
2026-05-05 23:46 53.72046 -61.01051 35589 ft 442 kts 240°
2026-05-05 23:46 53.68879 -61.09961 35594 ft 441 kts 240°
2026-05-05 23:47 53.65737 -61.18769 35593 ft 441 kts 240°
2026-05-05 23:47 53.62569 -61.27619 35596 ft 440 kts 240°
2026-05-05 23:48 53.59394 -61.36455 35591 ft 440 kts 240°
2026-05-05 23:48 53.56239 -61.45203 35591 ft 439 kts 240°
2026-05-05 23:49 53.53063 -61.53982 35590 ft 438 kts 240°
2026-05-05 23:49 53.49884 -61.62736 35589 ft 437 kts 240°
2026-05-05 23:50 53.46712 -61.71442 35589 ft 436 kts 240°
2026-05-05 23:50 53.43552 -61.80082 35595 ft 435 kts 240°
2026-05-05 23:51 53.40400 -61.88675 35590 ft 434 kts 239°
2026-05-05 23:51 53.37223 -61.97303 35589 ft 433 kts 239°
2026-05-05 23:52 53.34062 -62.05860 35590 ft 431 kts 239°
2026-05-05 23:52 53.30925 -62.14322 35587 ft 430 kts 239°
2026-05-05 23:53 53.27765 -62.22816 35586 ft 428 kts 239°
2026-05-05 23:53 53.24618 -62.31249 35590 ft 427 kts 239°
2026-05-05 23:54 53.21492 -62.39596 35584 ft 426 kts 239°
2026-05-05 23:54 53.18338 -62.47991 35586 ft 425 kts 239°
2026-05-05 23:55 53.15209 -62.56292 35590 ft 425 kts 239°
2026-05-05 23:55 53.12057 -62.64627 35586 ft 424 kts 239°
2026-05-05 23:56 53.08906 -62.72930 35591 ft 423 kts 239°
2026-05-05 23:56 53.05770 -62.81168 35589 ft 423 kts 238°
2026-05-05 23:57 53.02609 -62.89444 35588 ft 423 kts 238°
2026-05-05 23:57 52.99466 -62.97646 35588 ft 423 kts 238°
2026-05-05 23:58 52.96297 -63.05887 35585 ft 422 kts 238°
2026-05-05 23:58 52.93129 -63.14100 35586 ft 422 kts 238°
2026-05-05 23:59 52.89970 -63.22262 35583 ft 421 kts 238°
2026-05-05 23:59 52.86818 -63.30383 35579 ft 421 kts 238°
2026-05-06 00:00 52.83645 -63.38530 35586 ft 420 kts 238°
2026-05-06 00:00 52.80469 -63.46657 35584 ft 420 kts 238°
2026-05-06 00:01 52.77314 -63.54707 35586 ft 419 kts 238°
2026-05-06 00:01 52.74133 -63.62797 35580 ft 418 kts 237°
2026-05-06 00:02 52.71494 -63.69487 35586 ft 418 kts 237°
2026-05-06 00:02 52.68307 -63.77546 35578 ft 418 kts 237°
2026-05-06 00:03 52.65144 -63.85520 35580 ft 417 kts 237°
2026-05-06 00:03 52.61964 -63.93507 35577 ft 417 kts 237°
2026-05-06 00:04 52.58799 -64.01435 35570 ft 416 kts 237°
2026-05-06 00:04 52.55608 -64.09401 35566 ft 415 kts 237°
2026-05-06 00:05 52.50848 -64.21240 35561 ft 414 kts 237°
2026-05-06 00:06 52.47665 -64.29127 35556 ft 414 kts 237°
2026-05-06 00:06 52.44475 -64.37006 35553 ft 413 kts 236°
2026-05-06 00:07 52.41310 -64.44801 35553 ft 413 kts 236°
2026-05-06 00:07 52.38114 -64.52645 35552 ft 412 kts 236°
2026-05-06 00:08 52.34942 -64.60407 35550 ft 412 kts 236°
2026-05-06 00:08 52.31750 -64.68194 35554 ft 412 kts 236°
2026-05-06 00:09 52.28551 -64.75976 35549 ft 412 kts 236°
2026-05-06 00:09 52.25369 -64.83694 35550 ft 412 kts 236°
2026-05-06 00:10 52.22152 -64.91470 35549 ft 412 kts 236°
2026-05-06 00:10 52.18953 -64.99183 35548 ft 412 kts 236°
2026-05-06 00:11 52.15732 -65.06922 35548 ft 412 kts 236°
2026-05-06 00:11 52.12510 -65.14642 35545 ft 412 kts 236°
2026-05-06 00:12 52.09284 -65.22349 35544 ft 412 kts 235°
2026-05-06 00:12 52.06055 -65.30041 35549 ft 412 kts 235°
2026-05-06 00:13 52.02837 -65.37684 35551 ft 411 kts 235°
2026-05-06 00:13 51.99594 -65.45362 35553 ft 411 kts 235°
2026-05-06 00:14 51.96370 -65.52975 35534 ft 411 kts 235°
2026-05-06 00:14 51.93122 -65.60624 35531 ft 411 kts 235°
2026-05-06 00:15 51.89968 -65.68378 35531 ft 411 kts 240°
2026-05-06 00:15 51.87520 -65.76705 35527 ft 412 kts 245°
2026-05-06 00:16 51.85689 -65.85526 35538 ft 414 kts 250°
2026-05-06 00:16 51.83996 -65.94435 35541 ft 414 kts 250°
2026-05-06 00:17 51.82303 -66.03295 35536 ft 414 kts 249°
2026-05-06 00:17 51.80583 -66.12196 35529 ft 414 kts 249°
2026-05-06 00:18 51.78849 -66.21093 35523 ft 414 kts 249°
2026-05-06 00:18 51.77117 -66.29930 35526 ft 414 kts 249°
2026-05-06 00:19 51.75366 -66.38820 35516 ft 415 kts 249°
2026-05-06 00:19 51.73608 -66.47702 35517 ft 415 kts 249°
2026-05-06 00:20 51.71855 -66.56522 35519 ft 415 kts 249°
2026-05-06 00:20 51.70082 -66.65405 35516 ft 416 kts 249°
2026-05-06 00:21 51.68302 -66.74279 35514 ft 416 kts 249°
2026-05-06 00:21 51.66509 -66.83178 35508 ft 417 kts 248°
2026-05-06 00:22 51.64722 -66.92008 35513 ft 417 kts 248°
2026-05-06 00:22 51.62913 -67.00909 35508 ft 418 kts 248°
2026-05-06 00:23 51.61105 -67.09760 35507 ft 419 kts 248°
2026-05-06 00:23 51.59275 -67.18684 35508 ft 419 kts 248°
2026-05-06 00:24 51.57445 -67.27563 35509 ft 420 kts 248°
2026-05-06 00:24 51.55597 -67.36490 35503 ft 420 kts 248°
2026-05-06 00:25 51.53752 -67.45369 35501 ft 421 kts 248°
2026-05-06 00:25 51.51886 -67.54303 35507 ft 421 kts 248°
2026-05-06 00:26 51.50012 -67.63236 35489 ft 422 kts 248°
2026-05-06 00:26 51.48145 -67.72095 35490 ft 421 kts 248°
2026-05-06 00:27 51.46262 -67.81000 35486 ft 421 kts 248°
2026-05-06 00:27 51.44370 -67.89895 35495 ft 421 kts 248°
2026-05-06 00:28 51.42470 -67.98795 35488 ft 421 kts 248°
2026-05-06 00:28 51.40570 -68.07656 35489 ft 420 kts 248°
2026-05-06 00:29 51.38671 -68.16476 35493 ft 421 kts 248°
2026-05-06 00:29 51.36753 -68.25349 35491 ft 420 kts 248°
2026-05-06 00:30 51.34843 -68.34140 35488 ft 420 kts 248°
2026-05-06 00:30 51.32916 -68.42974 35487 ft 420 kts 248°
2026-05-06 00:31 51.30982 -68.51801 35491 ft 420 kts 247°
2026-05-06 00:31 51.29038 -68.60633 35483 ft 421 kts 247°
2026-05-06 00:32 51.27093 -68.69435 35495 ft 422 kts 247°
2026-05-06 00:32 51.25129 -68.78290 35495 ft 423 kts 247°
2026-05-06 00:33 51.23152 -68.87157 35501 ft 424 kts 247°
2026-05-06 00:33 51.21177 -68.95981 35492 ft 425 kts 247°
2026-05-06 00:34 51.19182 -69.04859 35497 ft 425 kts 247°
2026-05-06 00:34 51.17173 -69.13762 35500 ft 426 kts 247°
2026-05-06 00:35 51.15162 -69.22634 35497 ft 427 kts 247°
2026-05-06 00:35 51.13145 -69.31497 35500 ft 428 kts 247°
2026-05-06 00:36 51.11109 -69.40404 35500 ft 428 kts 247°
2026-05-06 00:36 51.09057 -69.49344 35512 ft 429 kts 247°
2026-05-06 00:37 51.07012 -69.58220 35512 ft 430 kts 247°
2026-05-06 00:37 51.04941 -69.67167 35512 ft 431 kts 247°
2026-05-06 00:38 51.02859 -69.76121 35521 ft 431 kts 247°
2026-05-06 00:38 51.00784 -69.85014 35520 ft 432 kts 247°
2026-05-06 00:39 50.98684 -69.93977 35527 ft 433 kts 247°
2026-05-06 00:39 50.96582 -70.02908 35527 ft 433 kts 247°
2026-05-06 00:40 50.94465 -70.11866 35539 ft 434 kts 247°
2026-05-06 00:40 50.92335 -70.20841 35537 ft 434 kts 247°
2026-05-06 00:41 50.90213 -70.29751 35543 ft 434 kts 247°
2026-05-06 00:41 50.88070 -70.38706 35540 ft 434 kts 247°
2026-05-06 00:42 50.85929 -70.47614 35552 ft 434 kts 247°
2026-05-06 00:42 50.83786 -70.56501 35547 ft 434 kts 247°
2026-05-06 00:43 50.81622 -70.65435 35558 ft 434 kts 247°
2026-05-06 00:43 50.79456 -70.74340 35546 ft 434 kts 246°
2026-05-06 00:44 50.77292 -70.83203 35547 ft 434 kts 246°
2026-05-06 00:44 50.75108 -70.92109 35554 ft 434 kts 246°
2026-05-06 00:45 50.72915 -71.01020 35554 ft 435 kts 246°
2026-05-06 00:45 50.70726 -71.09876 35561 ft 435 kts 246°
2026-05-06 00:46 50.68517 -71.18777 35561 ft 436 kts 246°
2026-05-06 00:46 50.66294 -71.27699 35566 ft 436 kts 246°
2026-05-06 00:47 50.64066 -71.36607 35569 ft 436 kts 246°
2026-05-06 00:47 50.61843 -71.45459 35570 ft 437 kts 246°
2026-05-06 00:48 50.59590 -71.54394 35575 ft 438 kts 246°
2026-05-06 00:48 50.57334 -71.63305 35578 ft 438 kts 246°
2026-05-06 00:49 50.55087 -71.72148 35578 ft 438 kts 246°
2026-05-06 00:49 50.52812 -71.81064 35584 ft 439 kts 246°
2026-05-06 00:50 50.50911 -71.88487 35583 ft 439 kts 246°
2026-05-06 00:50 50.48249 -71.98840 35591 ft 440 kts 246°
2026-05-06 00:51 50.46321 -72.06310 35595 ft 440 kts 246°
2026-05-06 00:51 50.43649 -72.16624 35601 ft 440 kts 246°
2026-05-06 00:52 50.41723 -72.24026 35597 ft 440 kts 246°
2026-05-06 00:52 50.39403 -72.32915 35603 ft 440 kts 246°
2026-05-06 00:53 50.37074 -72.41803 35603 ft 440 kts 246°
2026-05-06 00:53 50.34737 -72.50686 35610 ft 440 kts 246°
2026-05-06 00:54 50.32409 -72.59500 35610 ft 440 kts 246°
2026-05-06 00:54 50.30059 -72.68363 35614 ft 440 kts 246°
2026-05-06 00:55 50.27708 -72.77196 35612 ft 440 kts 246°
2026-05-06 00:55 50.25345 -72.86039 35619 ft 440 kts 246°
2026-05-06 00:56 50.22995 -72.94802 35620 ft 440 kts 246°
2026-05-06 00:56 50.20618 -73.03632 35625 ft 440 kts 245°
2026-05-06 00:57 50.18237 -73.12441 35629 ft 440 kts 245°
2026-05-06 00:57 50.15862 -73.21197 35627 ft 440 kts 245°
2026-05-06 00:58 50.13464 -73.30005 35632 ft 440 kts 245°
2026-05-06 00:58 50.11061 -73.38795 35634 ft 440 kts 245°
2026-05-06 00:59 50.08662 -73.47539 35630 ft 440 kts 245°
2026-05-06 00:59 50.06241 -73.56332 35633 ft 440 kts 245°
2026-05-06 01:00 50.03820 -73.65091 35635 ft 440 kts 245°
2026-05-06 01:00 50.01407 -73.73790 35638 ft 440 kts 245°
2026-05-06 01:01 49.98970 -73.82540 35635 ft 440 kts 245°
2026-05-06 01:01 49.96525 -73.91288 35643 ft 440 kts 245°
2026-05-06 01:02 49.94089 -73.99974 35646 ft 440 kts 245°
2026-05-06 01:02 49.91626 -74.08724 35636 ft 441 kts 245°
2026-05-06 01:03 49.89178 -74.17384 35635 ft 441 kts 245°
2026-05-06 01:03 49.86698 -74.26131 35630 ft 441 kts 245°
2026-05-06 01:04 49.84238 -74.34773 35625 ft 441 kts 245°
2026-05-06 01:04 49.81755 -74.43472 35619 ft 441 kts 245°
2026-05-06 01:05 49.79263 -74.52175 35622 ft 441 kts 245°
2026-05-06 01:05 49.76807 -74.60835 35619 ft 442 kts 245°
2026-05-06 01:06 49.74337 -74.69549 35623 ft 442 kts 245°
2026-05-06 01:06 49.71860 -74.78253 35631 ft 442 kts 245°
2026-05-06 01:07 49.69375 -74.86944 35635 ft 442 kts 245°
2026-05-06 01:07 49.66900 -74.95569 35644 ft 441 kts 245°
2026-05-06 01:08 49.64402 -75.04240 35654 ft 441 kts 245°
2026-05-06 01:08 49.61899 -75.12897 35654 ft 441 kts 245°
2026-05-06 01:09 49.59407 -75.21486 35658 ft 441 kts 245°
2026-05-06 01:09 49.56891 -75.30124 35656 ft 440 kts 245°
2026-05-06 01:10 49.54388 -75.38689 35656 ft 440 kts 245°
2026-05-06 01:10 49.51863 -75.47299 35660 ft 440 kts 245°
2026-05-06 01:11 49.49338 -75.55876 35662 ft 439 kts 245°
2026-05-06 01:11 49.46822 -75.64393 35663 ft 439 kts 245°
2026-05-06 01:12 49.44286 -75.72949 35661 ft 439 kts 245°
2026-05-06 01:12 49.41756 -75.81455 35662 ft 439 kts 245°
2026-05-06 01:13 49.39207 -75.89996 35659 ft 439 kts 245°
2026-05-06 01:13 49.36667 -75.98473 35663 ft 439 kts 245°
2026-05-06 01:14 49.32827 -76.11237 35666 ft 439 kts 245°
2026-05-06 01:14 49.30260 -76.19735 35669 ft 439 kts 245°
2026-05-06 01:15 49.27703 -76.28167 35670 ft 439 kts 245°
2026-05-06 01:15 49.25121 -76.36651 35667 ft 439 kts 245°
2026-05-06 01:16 49.22551 -76.45069 35668 ft 439 kts 245°
2026-05-06 01:16 49.19957 -76.53538 35674 ft 438 kts 245°
2026-05-06 01:17 49.17356 -76.61998 35691 ft 438 kts 245°
2026-05-06 01:17 49.14776 -76.70366 35691 ft 438 kts 245°
2026-05-06 01:18 49.12161 -76.78812 35694 ft 438 kts 245°
2026-05-06 01:18 49.09563 -76.87180 35696 ft 438 kts 245°
2026-05-06 01:19 49.06941 -76.95592 35694 ft 438 kts 245°
2026-05-06 01:19 49.04320 -77.03976 35697 ft 437 kts 245°
2026-05-06 01:20 49.01704 -77.12315 35700 ft 437 kts 244°
2026-05-06 01:20 48.99069 -77.20686 35701 ft 437 kts 244°
2026-05-06 01:21 48.96446 -77.28992 35704 ft 437 kts 244°
2026-05-06 01:21 48.93794 -77.37360 35706 ft 438 kts 244°
2026-05-06 01:22 48.91148 -77.45684 35710 ft 438 kts 244°
2026-05-06 01:22 48.88481 -77.54046 35710 ft 438 kts 244°
2026-05-06 01:23 48.85827 -77.62337 35709 ft 438 kts 244°
2026-05-06 01:23 48.83152 -77.70667 35714 ft 438 kts 244°
2026-05-06 01:24 48.80473 -77.78984 35714 ft 438 kts 244°
2026-05-06 01:24 48.77802 -77.87245 35720 ft 439 kts 244°
2026-05-06 01:25 48.75107 -77.95557 35718 ft 438 kts 244°
2026-05-06 01:25 48.72409 -78.03848 35721 ft 438 kts 244°
2026-05-06 01:26 48.69701 -78.12144 35721 ft 438 kts 244°
2026-05-06 01:26 48.67006 -78.20374 35722 ft 438 kts 244°
2026-05-06 01:27 48.64289 -78.28642 35725 ft 438 kts 244°
2026-05-06 01:27 48.61568 -78.36896 35728 ft 438 kts 244°
2026-05-06 01:28 48.58855 -78.45101 35730 ft 438 kts 244°
2026-05-06 01:28 48.56118 -78.53352 35733 ft 438 kts 244°
2026-05-06 01:29 48.53378 -78.61581 35733 ft 438 kts 244°
2026-05-06 01:29 48.50651 -78.69751 35724 ft 438 kts 244°
2026-05-06 01:30 48.47894 -78.77979 35721 ft 438 kts 244°
2026-05-06 01:30 48.45143 -78.86167 35723 ft 438 kts 244°
2026-05-06 01:31 48.42376 -78.94373 35718 ft 438 kts 244°
2026-05-06 01:31 48.39621 -79.02518 35721 ft 438 kts 244°
2026-05-06 01:32 48.36866 -79.10636 35719 ft 437 kts 244°
2026-05-06 01:32 48.34092 -79.18787 35724 ft 437 kts 244°
2026-05-06 01:33 48.31305 -79.26948 35727 ft 437 kts 244°
2026-05-06 01:33 48.28544 -79.35011 35730 ft 437 kts 244°
2026-05-06 01:34 48.25754 -79.43131 35732 ft 437 kts 244°
2026-05-06 01:34 48.22959 -79.51239 35734 ft 436 kts 244°
2026-05-06 01:35 48.20174 -79.59293 35734 ft 437 kts 244°
2026-05-06 01:35 48.17371 -79.67378 35737 ft 437 kts 244°
2026-05-06 01:36 48.14581 -79.75398 35736 ft 437 kts 244°
2026-05-06 01:36 48.11767 -79.83460 35737 ft 437 kts 244°
2026-05-06 01:37 48.09401 -79.90222 35737 ft 437 kts 244°
2026-05-06 01:37 48.06128 -79.99544 35743 ft 437 kts 244°
2026-05-06 01:38 48.03755 -80.06283 35743 ft 437 kts 244°
2026-05-06 01:38 48.00936 -80.14267 35742 ft 437 kts 244°
2026-05-06 01:39 47.98086 -80.22311 35747 ft 436 kts 244°
2026-05-06 01:39 47.95240 -80.30322 35752 ft 436 kts 244°
2026-05-06 01:40 47.92410 -80.38263 35753 ft 436 kts 244°
2026-05-06 01:40 47.89556 -80.46248 35758 ft 436 kts 244°
2026-05-06 01:41 47.86698 -80.54218 35761 ft 435 kts 244°
2026-05-06 01:41 47.83856 -80.62120 35765 ft 435 kts 244°
2026-05-06 01:42 47.80953 -80.70168 35768 ft 435 kts 243°
2026-05-06 01:42 47.78082 -80.78101 35774 ft 435 kts 243°
2026-05-06 01:43 47.75228 -80.85968 35778 ft 435 kts 243°
2026-05-06 01:43 47.72344 -80.93888 35774 ft 435 kts 243°
2026-05-06 01:44 47.69456 -81.01799 35777 ft 435 kts 243°
2026-05-06 01:44 47.66592 -81.09622 35795 ft 434 kts 243°
2026-05-06 01:45 47.63694 -81.17513 35798 ft 434 kts 243°
2026-05-06 01:45 47.60815 -81.25328 35794 ft 433 kts 243°
2026-05-06 01:46 47.57917 -81.33170 35797 ft 433 kts 243°
2026-05-06 01:46 47.55018 -81.40996 35809 ft 433 kts 243°
2026-05-06 01:47 47.52131 -81.48764 35807 ft 432 kts 243°
2026-05-06 01:47 47.49225 -81.56561 35810 ft 432 kts 243°
2026-05-06 01:48 47.46312 -81.64354 35816 ft 432 kts 243°
2026-05-06 01:48 47.43400 -81.72122 35816 ft 432 kts 243°
2026-05-06 01:49 47.40496 -81.79847 35823 ft 432 kts 243°
2026-05-06 01:49 47.37574 -81.87596 35825 ft 432 kts 243°
2026-05-06 01:50 47.34662 -81.95295 35828 ft 431 kts 243°
2026-05-06 01:50 47.31726 -82.03037 35836 ft 431 kts 243°
2026-05-06 01:51 47.28793 -82.10748 35845 ft 431 kts 243°
2026-05-06 01:51 47.25875 -82.18399 35848 ft 431 kts 243°
2026-05-06 01:52 47.22928 -82.26102 35854 ft 431 kts 243°
2026-05-06 01:52 47.19980 -82.33788 35855 ft 430 kts 243°
2026-05-06 01:53 47.17046 -82.41414 35856 ft 430 kts 243°
2026-05-06 01:53 47.14091 -82.49072 35860 ft 430 kts 243°
2026-05-06 01:54 47.11131 -82.56724 35865 ft 430 kts 243°
2026-05-06 01:54 47.08190 -82.64304 35867 ft 430 kts 243°
2026-05-06 01:55 47.05219 -82.71939 35866 ft 430 kts 243°
2026-05-06 01:55 47.02245 -82.79563 35871 ft 430 kts 243°
2026-05-06 01:56 46.99289 -82.87116 35870 ft 429 kts 243°
2026-05-06 01:56 46.96310 -82.94709 35875 ft 429 kts 243°
2026-05-06 01:57 46.93332 -83.02278 35878 ft 429 kts 243°
2026-05-06 01:57 46.90367 -83.09791 35884 ft 428 kts 243°
2026-05-06 01:58 46.87381 -83.17339 35895 ft 428 kts 243°
2026-05-06 01:58 46.84386 -83.24888 35902 ft 428 kts 242°
2026-05-06 01:59 46.81410 -83.32369 35900 ft 428 kts 242°
2026-05-06 01:59 46.78400 -83.39914 35894 ft 428 kts 242°
2026-05-06 02:00 46.75413 -83.47381 35900 ft 428 kts 242°
2026-05-06 02:00 46.72404 -83.54880 35899 ft 428 kts 242°
2026-05-06 02:01 46.69394 -83.62364 35904 ft 427 kts 242°
2026-05-06 02:01 46.66383 -83.69830 35901 ft 427 kts 242°
2026-05-06 02:02 46.63388 -83.77236 35908 ft 426 kts 242°
2026-05-06 02:02 46.60374 -83.84669 35906 ft 426 kts 242°
2026-05-06 02:03 46.57352 -83.92102 35905 ft 426 kts 242°
2026-05-06 02:03 46.54352 -83.99461 35903 ft 426 kts 242°
2026-05-06 02:04 46.51318 -84.06883 35895 ft 425 kts 242°
2026-05-06 02:04 46.48312 -84.14217 35893 ft 425 kts 242°
2026-05-06 02:05 46.45281 -84.21595 35889 ft 425 kts 242°
2026-05-06 02:05 46.42245 -84.28965 35879 ft 425 kts 242°
2026-05-06 02:06 46.39145 -84.36271 35893 ft 426 kts 240°
2026-05-06 02:06 46.35918 -84.43416 35910 ft 426 kts 240°
2026-05-06 02:07 46.32658 -84.50590 35906 ft 425 kts 240°
2026-05-06 02:07 46.29439 -84.57704 35907 ft 425 kts 240°
2026-05-06 02:08 46.26202 -84.64870 35908 ft 424 kts 240°
2026-05-06 02:08 46.22972 -84.72011 35910 ft 424 kts 240°
2026-05-06 02:09 46.19757 -84.79100 35910 ft 423 kts 240°
2026-05-06 02:09 46.16525 -84.86208 35917 ft 423 kts 240°
2026-05-06 02:10 46.13291 -84.93303 35918 ft 422 kts 240°
2026-05-06 02:10 46.10064 -85.00364 35917 ft 422 kts 240°
2026-05-06 02:11 46.06843 -85.07395 35917 ft 422 kts 240°
2026-05-06 02:11 46.03601 -85.14453 35921 ft 421 kts 240°
2026-05-06 02:12 46.00375 -85.21460 35913 ft 421 kts 240°
2026-05-06 02:12 45.97137 -85.28474 35912 ft 420 kts 240°
2026-05-06 02:13 45.93896 -85.35477 35911 ft 420 kts 240°
2026-05-06 02:13 45.90656 -85.42462 35910 ft 420 kts 240°
2026-05-06 02:14 45.87431 -85.49397 35912 ft 419 kts 240°
2026-05-06 02:14 45.84186 -85.56357 35908 ft 419 kts 240°
2026-05-06 02:15 45.80944 -85.63295 35907 ft 418 kts 240°
2026-05-06 02:15 45.77700 -85.70218 35904 ft 418 kts 240°
2026-05-06 02:16 45.74469 -85.77098 35909 ft 418 kts 240°
2026-05-06 02:16 45.71221 -85.83996 35906 ft 417 kts 240°
2026-05-06 02:17 45.67976 -85.90871 35912 ft 416 kts 240°
2026-05-06 02:17 45.64751 -85.97688 35912 ft 416 kts 240°
2026-05-06 02:18 45.61505 -86.04533 35913 ft 415 kts 240°
2026-05-06 02:18 45.58283 -86.11312 35924 ft 414 kts 240°
2026-05-06 02:19 45.55041 -86.18115 35927 ft 413 kts 240°
2026-05-06 02:19 45.51819 -86.24860 35927 ft 412 kts 240°
2026-05-06 02:20 45.46969 -86.34984 35929 ft 411 kts 240°
2026-05-06 02:21 45.43735 -86.41715 35926 ft 411 kts 240°
2026-05-06 02:21 45.40522 -86.48387 35927 ft 411 kts 240°
2026-05-06 02:22 45.37285 -86.55092 35928 ft 410 kts 240°
2026-05-06 02:22 45.34595 -86.60653 35929 ft 410 kts 240°
2026-05-06 02:23 45.31356 -86.67332 35924 ft 410 kts 240°
2026-05-06 02:23 45.28113 -86.74006 35926 ft 410 kts 240°
2026-05-06 02:24 45.24884 -86.80634 35930 ft 410 kts 240°
2026-05-06 02:24 45.21627 -86.87304 35922 ft 410 kts 240°
2026-05-06 02:25 45.18391 -86.93917 35924 ft 410 kts 240°
2026-05-06 02:25 45.15129 -87.00566 35919 ft 409 kts 240°
2026-05-06 02:26 45.11893 -87.07147 35919 ft 409 kts 240°
2026-05-06 02:26 45.08637 -87.13754 35914 ft 408 kts 240°
2026-05-06 02:27 45.05405 -87.20297 35917 ft 407 kts 240°
2026-05-06 02:27 45.02154 -87.26865 35910 ft 407 kts 240°
2026-05-06 02:28 44.98909 -87.33405 35907 ft 406 kts 240°
2026-05-06 02:28 44.95657 -87.39944 35905 ft 406 kts 240°
2026-05-06 02:29 44.92405 -87.46468 35905 ft 405 kts 240°
2026-05-06 02:29 44.89175 -87.52933 35902 ft 404 kts 240°
2026-05-06 02:30 44.85924 -87.59426 35905 ft 404 kts 240°
2026-05-06 02:30 44.82695 -87.65859 35904 ft 404 kts 240°
2026-05-06 02:31 44.79450 -87.72312 35912 ft 404 kts 240°
2026-05-06 02:31 44.76194 -87.78773 35910 ft 404 kts 240°
2026-05-06 02:32 44.72940 -87.85213 35914 ft 403 kts 240°
2026-05-06 02:32 44.69680 -87.91652 35914 ft 403 kts 240°
2026-05-06 02:33 44.66433 -87.98051 35911 ft 404 kts 240°
2026-05-06 02:33 44.65354 -88.00175 35911 ft 404 kts 240°
2026-05-06 02:34 44.59914 -88.10860 35917 ft 404 kts 240°
2026-05-06 02:34 44.56774 -88.17371 35920 ft 399 kts 245°
2026-05-06 02:35 44.54303 -88.24261 35916 ft 396 kts 250°
2026-05-06 02:35 44.52375 -88.31497 35917 ft 395 kts 253°
2026-05-06 02:36 44.50535 -88.38726 35916 ft 396 kts 253°
2026-05-06 02:36 44.48672 -88.46009 35924 ft 396 kts 253°
2026-05-06 02:37 44.46796 -88.53284 35927 ft 397 kts 253°
2026-05-06 02:37 44.44922 -88.60514 35929 ft 397 kts 253°
2026-05-06 02:38 44.43026 -88.67798 35931 ft 398 kts 253°
2026-05-06 02:38 44.41125 -88.75079 35943 ft 398 kts 252°
2026-05-06 02:39 44.39232 -88.82306 35941 ft 398 kts 252°
2026-05-06 02:39 44.37320 -88.89582 35959 ft 398 kts 252°
2026-05-06 02:40 44.35415 -88.96812 35956 ft 398 kts 252°
2026-05-06 02:40 44.33494 -89.04083 35955 ft 398 kts 252°
2026-05-06 02:41 44.31570 -89.11339 35955 ft 398 kts 252°
2026-05-06 02:41 44.29655 -89.18542 35948 ft 397 kts 252°
2026-05-06 02:42 44.27722 -89.25786 35945 ft 397 kts 252°
2026-05-06 02:42 44.25792 -89.33000 35931 ft 397 kts 252°
2026-05-06 02:43 44.23852 -89.40231 35934 ft 397 kts 252°
2026-05-06 02:43 44.21911 -89.47445 35916 ft 398 kts 252°
2026-05-06 02:44 44.19974 -89.54621 35921 ft 398 kts 252°
2026-05-06 02:44 44.18017 -89.61849 35918 ft 398 kts 252°
2026-05-06 02:45 44.16055 -89.69073 35919 ft 398 kts 252°
2026-05-06 02:45 44.14103 -89.76240 35911 ft 398 kts 251°
2026-05-06 02:46 44.12133 -89.83450 35917 ft 398 kts 251°
2026-05-06 02:46 44.10157 -89.90662 35915 ft 398 kts 251°
2026-05-06 02:47 44.08183 -89.97846 35904 ft 399 kts 251°
2026-05-06 02:47 44.06196 -90.05055 35904 ft 399 kts 251°
2026-05-06 02:48 44.04212 -90.12234 35900 ft 399 kts 251°
2026-05-06 02:48 44.02223 -90.19406 35897 ft 399 kts 251°
2026-05-06 02:49 44.00219 -90.26614 35898 ft 399 kts 251°
2026-05-06 02:49 43.98220 -90.33785 35897 ft 399 kts 251°
2026-05-06 02:50 43.96209 -90.40975 35898 ft 399 kts 251°
2026-05-06 02:50 43.94189 -90.48177 35900 ft 399 kts 251°
2026-05-06 02:51 43.92179 -90.55322 35910 ft 400 kts 251°
2026-05-06 02:51 43.90152 -90.62507 35911 ft 400 kts 251°
2026-05-06 02:52 43.88116 -90.69702 35908 ft 400 kts 251°
2026-05-06 02:52 43.86083 -90.76863 35905 ft 400 kts 251°
2026-05-06 02:53 43.84038 -90.84051 35910 ft 401 kts 250°
2026-05-06 02:53 43.81988 -90.91235 35912 ft 400 kts 250°
2026-05-06 02:54 43.79942 -90.98381 35929 ft 401 kts 250°
2026-05-06 02:54 43.77881 -91.05560 35933 ft 401 kts 250°
2026-05-06 02:55 43.75829 -91.12689 35939 ft 401 kts 250°
2026-05-06 02:55 43.73758 -91.19864 35933 ft 401 kts 250°
2026-05-06 02:56 43.71682 -91.27035 35929 ft 401 kts 250°
2026-05-06 02:56 43.69616 -91.34149 35930 ft 401 kts 250°
2026-05-06 02:57 43.67531 -91.41308 35930 ft 401 kts 250°
2026-05-06 02:57 43.65442 -91.48465 35935 ft 401 kts 250°
2026-05-06 02:58 43.63346 -91.55624 35937 ft 402 kts 250°
2026-05-06 02:58 43.61258 -91.62736 35935 ft 402 kts 250°
2026-05-06 02:59 43.59149 -91.69896 35938 ft 402 kts 250°
2026-05-06 02:59 43.57046 -91.77016 35936 ft 402 kts 250°
2026-05-06 03:00 43.54929 -91.84167 35943 ft 402 kts 250°
2026-05-06 03:00 43.52804 -91.91323 35948 ft 402 kts 250°
2026-05-06 03:01 43.50693 -91.98412 35945 ft 402 kts 250°
2026-05-06 03:01 43.48563 -92.05544 35938 ft 402 kts 250°
2026-05-06 03:02 43.46423 -92.12690 35946 ft 402 kts 250°
2026-05-06 03:02 43.44287 -92.19802 35948 ft 402 kts 250°
2026-05-06 03:03 43.42153 -92.26889 35952 ft 402 kts 249°
2026-05-06 03:03 43.40004 -92.34009 35963 ft 402 kts 249°
2026-05-06 03:04 43.37860 -92.41091 35962 ft 403 kts 249°
2026-05-06 03:04 43.35700 -92.48205 35964 ft 403 kts 249°
2026-05-06 03:05 43.33533 -92.55321 35964 ft 403 kts 249°
2026-05-06 03:05 43.31377 -92.62384 35965 ft 403 kts 249°
2026-05-06 03:06 43.29199 -92.69498 35961 ft 403 kts 249°
2026-05-06 03:06 43.27022 -92.76592 35962 ft 404 kts 249°
2026-05-06 03:07 43.24849 -92.83652 35963 ft 404 kts 249°
2026-05-06 03:07 43.22655 -92.90761 35962 ft 404 kts 249°
2026-05-06 03:08 43.20456 -92.97867 35965 ft 404 kts 249°
2026-05-06 03:08 43.18264 -93.04933 35971 ft 405 kts 249°
2026-05-06 03:09 43.16052 -93.12042 35975 ft 405 kts 249°
2026-05-06 03:09 43.13838 -93.19143 35977 ft 405 kts 249°
2026-05-06 03:10 43.11630 -93.26207 35981 ft 405 kts 249°
2026-05-06 03:10 43.09383 -93.33291 35981 ft 406 kts 247°
2026-05-06 03:11 43.06817 -93.40154 35981 ft 407 kts 245°
2026-05-06 03:11 43.04203 -93.46995 35979 ft 407 kts 245°
2026-05-06 03:12 43.02007 -93.52744 35974 ft 407 kts 245°
2026-05-06 03:12 42.99406 -93.59555 35982 ft 407 kts 245°
2026-05-06 03:13 42.96778 -93.66431 35982 ft 407 kts 245°
2026-05-06 03:13 42.94162 -93.73260 35989 ft 407 kts 245°
2026-05-06 03:14 42.91526 -93.80127 35994 ft 407 kts 245°
2026-05-06 03:14 42.88907 -93.86934 35992 ft 407 kts 245°
2026-05-06 03:15 42.86264 -93.93785 35992 ft 407 kts 245°
2026-05-06 03:15 42.83619 -94.00624 35992 ft 408 kts 245°
2026-05-06 03:16 42.80968 -94.07464 35994 ft 408 kts 245°
2026-05-06 03:16 42.78326 -94.14263 35998 ft 408 kts 245°
2026-05-06 03:17 42.75666 -94.21094 36002 ft 408 kts 245°
2026-05-06 03:17 42.73012 -94.27893 36004 ft 408 kts 245°
2026-05-06 03:18 42.70344 -94.34711 36003 ft 408 kts 245°
2026-05-06 03:18 42.67672 -94.41521 36009 ft 408 kts 245°
2026-05-06 03:19 42.65012 -94.48287 36002 ft 408 kts 245°
2026-05-06 03:19 42.62326 -94.55103 36000 ft 408 kts 244°
2026-05-06 03:20 42.58309 -94.65265 36002 ft 408 kts 244°
2026-05-06 03:20 42.55619 -94.72050 36002 ft 408 kts 244°
2026-05-06 03:21 42.52917 -94.78851 36007 ft 409 kts 244°
2026-05-06 03:21 42.50226 -94.85606 36011 ft 409 kts 244°
2026-05-06 03:22 42.47514 -94.92399 36008 ft 409 kts 244°
2026-05-06 03:22 42.44813 -94.99149 36011 ft 409 kts 244°
2026-05-06 03:23 42.42094 -95.05929 36010 ft 409 kts 244°
2026-05-06 03:23 42.39374 -95.12692 36014 ft 409 kts 244°
2026-05-06 03:24 42.36655 -95.19440 36009 ft 409 kts 244°
2026-05-06 03:24 42.33918 -95.26216 36013 ft 409 kts 244°
2026-05-06 03:25 42.31182 -95.32976 36014 ft 410 kts 244°
2026-05-06 03:25 42.28448 -95.39712 36020 ft 410 kts 244°
2026-05-06 03:26 42.25698 -95.46474 36018 ft 410 kts 244°
2026-05-06 03:26 42.22961 -95.53188 36021 ft 410 kts 244°
2026-05-06 03:27 42.20202 -95.59940 36017 ft 410 kts 244°
2026-05-06 03:27 42.17442 -95.66679 36015 ft 410 kts 244°
2026-05-06 03:28 42.14690 -95.73382 36017 ft 410 kts 244°
2026-05-06 03:28 42.11917 -95.80123 36011 ft 410 kts 244°
2026-05-06 03:29 42.09165 -95.86796 36009 ft 410 kts 244°
2026-05-06 03:29 42.06388 -95.93514 36010 ft 410 kts 244°
2026-05-06 03:30 42.03613 -96.00213 36016 ft 410 kts 244°
2026-05-06 03:30 42.00828 -96.06921 36020 ft 410 kts 244°
2026-05-06 03:31 41.98059 -96.13574 36021 ft 410 kts 244°
2026-05-06 03:31 41.95261 -96.20282 36032 ft 410 kts 244°
2026-05-06 03:32 41.92482 -96.26931 36029 ft 410 kts 243°
2026-05-06 03:32 41.89680 -96.33618 36030 ft 410 kts 243°
2026-05-06 03:33 41.86871 -96.40308 36030 ft 410 kts 243°
2026-05-06 03:33 41.84078 -96.46942 36032 ft 411 kts 243°
2026-05-06 03:34 41.81261 -96.53620 36024 ft 410 kts 243°
2026-05-06 03:34 41.78444 -96.60283 36028 ft 410 kts 243°
2026-05-06 03:35 41.75644 -96.66892 36030 ft 410 kts 243°
2026-05-06 03:35 41.72817 -96.73548 36030 ft 410 kts 243°
2026-05-06 03:36 41.69989 -96.80194 36034 ft 410 kts 243°
2026-05-06 03:36 41.67178 -96.86783 36039 ft 410 kts 243°
2026-05-06 03:37 41.64348 -96.93402 36045 ft 410 kts 243°
2026-05-06 03:37 41.61515 -97.00015 36047 ft 410 kts 243°
2026-05-06 03:38 41.58669 -97.06642 36053 ft 410 kts 243°
2026-05-06 03:38 41.55842 -97.13212 36056 ft 410 kts 243°
2026-05-06 03:39 41.52995 -97.19812 36065 ft 410 kts 243°
2026-05-06 03:39 41.50142 -97.26413 36062 ft 410 kts 243°
2026-05-06 03:40 41.47302 -97.32968 36064 ft 410 kts 243°
2026-05-06 03:40 41.44444 -97.39551 36062 ft 410 kts 243°
2026-05-06 03:41 41.41600 -97.46086 36064 ft 409 kts 243°
2026-05-06 03:41 41.38732 -97.52665 36064 ft 409 kts 243°
2026-05-06 03:42 41.35877 -97.59198 36060 ft 409 kts 243°
2026-05-06 03:42 41.32998 -97.65770 36059 ft 409 kts 243°
2026-05-06 03:43 41.30122 -97.72322 36057 ft 409 kts 243°
2026-05-06 03:43 41.27266 -97.78816 36055 ft 409 kts 243°
2026-05-06 03:44 41.24382 -97.85359 36049 ft 409 kts 243°
2026-05-06 03:44 41.21516 -97.91846 36062 ft 409 kts 242°
2026-05-06 03:45 41.18630 -97.98363 36060 ft 408 kts 242°
2026-05-06 03:45 41.15747 -98.04862 36065 ft 408 kts 242°
2026-05-06 03:46 41.12862 -98.11350 36059 ft 408 kts 242°
2026-05-06 03:46 41.09974 -98.17832 36057 ft 408 kts 242°
2026-05-06 03:47 41.07098 -98.24273 36055 ft 407 kts 242°
2026-05-06 03:47 41.04202 -98.30745 36052 ft 407 kts 242°
2026-05-06 03:48 41.01324 -98.37162 36055 ft 407 kts 242°
2026-05-06 03:48 40.98426 -98.43612 36054 ft 407 kts 242°
2026-05-06 03:49 40.95515 -98.50075 36055 ft 407 kts 242°
2026-05-06 03:49 40.92624 -98.56483 36055 ft 407 kts 242°
2026-05-06 03:50 40.89713 -98.62919 36053 ft 407 kts 242°
2026-05-06 03:50 40.86802 -98.69343 36056 ft 407 kts 242°
2026-05-06 03:51 40.83883 -98.75771 36054 ft 407 kts 242°
2026-05-06 03:51 40.80980 -98.82151 36055 ft 407 kts 242°
2026-05-06 03:52 40.78057 -98.88564 36051 ft 407 kts 242°
2026-05-06 03:52 40.75146 -98.94937 36056 ft 407 kts 242°
2026-05-06 03:53 40.72071 -99.01228 36056 ft 409 kts 237°
2026-05-06 03:53 40.68433 -99.06969 36056 ft 410 kts 233°
2026-05-06 03:54 40.64709 -99.12677 36054 ft 410 kts 234°
2026-05-06 03:54 40.60988 -99.18392 36055 ft 410 kts 234°
2026-05-06 03:55 40.57301 -99.24053 36070 ft 409 kts 234°
2026-05-06 03:55 40.53588 -99.29748 36075 ft 409 kts 234°
2026-05-06 03:56 40.49873 -99.35435 36073 ft 409 kts 234°
2026-05-06 03:56 40.46185 -99.41069 36073 ft 408 kts 233°
2026-05-06 03:57 40.42471 -99.46733 36079 ft 408 kts 233°
2026-05-06 03:57 40.38774 -99.52360 36070 ft 408 kts 233°
2026-05-06 03:58 40.35065 -99.57996 36070 ft 408 kts 233°
2026-05-06 03:58 40.31982 -99.62672 36068 ft 407 kts 233°
2026-05-06 03:59 40.28274 -99.68286 36064 ft 407 kts 233°
2026-05-06 03:59 40.24585 -99.73863 36067 ft 406 kts 233°
2026-05-06 04:00 40.20885 -99.79445 36070 ft 406 kts 233°
2026-05-06 04:00 40.17200 -99.84995 36069 ft 405 kts 233°
2026-05-06 04:01 40.13494 -99.90563 36075 ft 404 kts 233°
2026-05-06 04:01 40.09794 -99.96117 36079 ft 404 kts 233°
2026-05-06 04:02 40.06122 -100.01619 36077 ft 404 kts 233°
2026-05-06 04:02 40.02421 -100.07153 36075 ft 403 kts 233°
2026-05-06 04:03 39.98752 -100.12629 36073 ft 403 kts 233°
2026-05-06 04:03 39.95059 -100.18132 36076 ft 402 kts 233°
2026-05-06 04:04 39.91392 -100.23585 36075 ft 402 kts 233°
2026-05-06 04:04 39.87702 -100.29063 36085 ft 401 kts 233°
2026-05-06 04:05 39.84005 -100.34543 36080 ft 401 kts 234°
2026-05-06 04:05 39.80336 -100.39971 36087 ft 400 kts 234°
2026-05-06 04:06 39.76673 -100.45380 36084 ft 400 kts 234°
2026-05-06 04:06 39.72984 -100.50819 36090 ft 399 kts 234°
2026-05-06 04:07 39.69324 -100.56204 36079 ft 399 kts 234°
2026-05-06 04:07 39.65649 -100.61603 36077 ft 398 kts 234°
2026-05-06 04:08 39.61998 -100.66958 36084 ft 398 kts 234°
2026-05-06 04:08 39.58323 -100.72338 36077 ft 397 kts 234°
2026-05-06 04:09 39.54649 -100.77707 36073 ft 397 kts 234°
2026-05-06 04:09 39.51002 -100.83028 36082 ft 396 kts 234°
2026-05-06 04:10 39.47334 -100.88370 36083 ft 396 kts 234°
2026-05-06 04:10 39.43669 -100.93699 36088 ft 395 kts 234°
2026-05-06 04:11 39.40030 -100.98981 36087 ft 395 kts 234°
2026-05-06 04:11 39.36382 -101.04266 36090 ft 394 kts 234°
2026-05-06 04:12 39.32723 -101.09559 36086 ft 394 kts 234°
2026-05-06 04:12 39.29092 -101.14804 36086 ft 393 kts 234°
2026-05-06 04:13 39.25428 -101.20086 36076 ft 393 kts 234°
2026-05-06 04:13 39.21796 -101.25313 36069 ft 393 kts 234°
2026-05-06 04:14 39.18134 -101.30575 36065 ft 393 kts 234°
2026-05-06 04:14 39.14471 -101.35830 36063 ft 393 kts 234°
2026-05-06 04:15 39.10826 -101.41049 36057 ft 393 kts 234°
2026-05-06 04:15 39.07159 -101.46292 36061 ft 393 kts 234°
2026-05-06 04:16 39.03515 -101.51492 36054 ft 393 kts 234°
2026-05-06 04:16 38.99841 -101.56726 36056 ft 393 kts 234°
2026-05-06 04:17 38.96192 -101.61916 36051 ft 393 kts 234°
2026-05-06 04:17 38.92518 -101.67135 36055 ft 393 kts 234°
2026-05-06 04:18 38.88866 -101.72311 36051 ft 393 kts 234°
2026-05-06 04:18 38.85182 -101.77526 36060 ft 393 kts 234°
2026-05-06 04:19 38.81493 -101.82739 36049 ft 393 kts 234°
2026-05-06 04:19 38.77834 -101.87900 36053 ft 393 kts 234°
2026-05-06 04:20 38.74139 -101.93103 36048 ft 393 kts 234°
2026-05-06 04:20 38.70481 -101.98246 36050 ft 393 kts 234°
2026-05-06 04:21 38.66786 -102.03433 36057 ft 393 kts 234°
2026-05-06 04:21 38.63112 -102.08582 36045 ft 393 kts 234°
2026-05-06 04:22 38.59416 -102.13752 36045 ft 393 kts 234°
2026-05-06 04:23 38.53897 -102.21458 36038 ft 393 kts 234°
2026-05-06 04:23 38.50203 -102.26606 36045 ft 392 kts 234°
2026-05-06 04:24 38.46513 -102.31739 36041 ft 392 kts 234°
2026-05-06 04:24 38.42812 -102.36880 36044 ft 393 kts 234°
2026-05-06 04:25 38.39131 -102.41984 36032 ft 393 kts 234°
2026-05-06 04:25 38.35429 -102.47110 36035 ft 393 kts 234°
2026-05-06 04:26 38.31720 -102.52237 36037 ft 393 kts 234°
2026-05-06 04:26 38.28034 -102.57327 36047 ft 393 kts 234°
2026-05-06 04:27 38.24321 -102.62443 36043 ft 393 kts 234°
2026-05-06 04:27 38.21080 -102.67921 36057 ft 384 kts 244°
2026-05-06 04:28 38.18528 -102.73838 36050 ft 382 kts 248°
2026-05-06 04:28 38.16718 -102.80163 36052 ft 381 kts 254°
2026-05-06 04:29 38.15098 -102.86600 36046 ft 382 kts 254°
2026-05-06 04:29 38.13474 -102.93012 36044 ft 384 kts 254°
2026-05-06 04:30 38.11815 -102.99490 36025 ft 385 kts 254°
2026-05-06 04:30 38.10147 -103.05956 36018 ft 386 kts 253°
2026-05-06 04:31 38.08474 -103.12418 36001 ft 386 kts 253°
2026-05-06 04:31 38.06791 -103.18897 36014 ft 386 kts 253°
2026-05-06 04:32 38.05104 -103.25378 36015 ft 386 kts 253°
2026-05-06 04:32 38.03423 -103.31818 36031 ft 386 kts 253°
2026-05-06 04:33 38.01730 -103.38290 36038 ft 386 kts 253°
2026-05-06 04:33 38.00043 -103.44719 36046 ft 386 kts 253°
2026-05-06 04:34 37.98345 -103.51178 36040 ft 385 kts 253°
2026-05-06 04:34 37.96644 -103.57630 36040 ft 385 kts 253°
2026-05-06 04:35 37.94940 -103.64072 36023 ft 385 kts 253°
2026-05-06 04:35 37.93245 -103.70469 36012 ft 385 kts 253°
2026-05-06 04:36 37.91537 -103.76901 35985 ft 385 kts 253°
2026-05-06 04:36 37.89830 -103.83308 35984 ft 385 kts 253°
2026-05-06 04:37 37.88114 -103.89735 35956 ft 385 kts 253°
2026-05-06 04:37 37.86394 -103.96161 35960 ft 385 kts 253°
2026-05-06 04:38 37.84680 -104.02549 35954 ft 385 kts 253°
2026-05-06 04:38 37.82952 -104.08975 35960 ft 385 kts 253°
2026-05-06 04:39 37.81232 -104.15353 35960 ft 385 kts 253°
2026-05-06 04:39 37.79492 -104.21788 35960 ft 385 kts 253°
2026-05-06 04:40 37.77751 -104.28213 35963 ft 386 kts 253°
2026-05-06 04:40 37.76016 -104.34598 35985 ft 387 kts 253°
2026-05-06 04:41 37.74261 -104.41041 35970 ft 387 kts 253°
2026-05-06 04:41 37.72508 -104.47462 35979 ft 387 kts 253°
2026-05-06 04:42 37.70752 -104.53880 35975 ft 387 kts 253°
2026-05-06 04:42 37.68988 -104.60310 35980 ft 387 kts 253°
2026-05-06 04:43 37.67216 -104.66752 35965 ft 387 kts 253°
2026-05-06 04:43 37.65456 -104.73135 35973 ft 387 kts 252°
2026-05-06 04:44 37.63682 -104.79555 35969 ft 387 kts 252°
2026-05-06 04:44 37.61906 -104.85965 35966 ft 386 kts 252°
2026-05-06 04:45 37.60138 -104.92330 35958 ft 386 kts 252°
2026-05-06 04:45 37.58352 -104.98744 35947 ft 386 kts 252°
2026-05-06 04:46 37.56577 -105.05106 35934 ft 387 kts 252°
2026-05-06 04:46 37.54782 -105.11522 35924 ft 387 kts 252°
2026-05-06 04:47 37.53001 -105.17874 35877 ft 387 kts 252°
2026-05-06 04:47 37.51199 -105.24287 35910 ft 388 kts 252°
2026-05-06 04:48 37.49402 -105.30665 35888 ft 389 kts 252°
2026-05-06 04:48 37.47579 -105.37119 35879 ft 391 kts 252°
2026-05-06 04:49 37.45754 -105.43565 35870 ft 391 kts 252°
2026-05-06 04:49 37.43938 -105.49965 35887 ft 390 kts 252°
2026-05-06 04:50 37.42105 -105.56411 35895 ft 390 kts 252°
2026-05-06 04:50 37.40288 -105.62784 35922 ft 388 kts 252°
2026-05-06 04:51 37.38456 -105.69199 35935 ft 387 kts 252°
2026-05-06 04:51 37.36637 -105.75546 35961 ft 386 kts 251°
2026-05-06 04:52 37.34770 -105.80668 35957 ft 388 kts 245°
2026-05-06 04:52 37.32024 -105.86539 35957 ft 391 kts 240°
2026-05-06 04:53 37.28806 -105.92070 35924 ft 391 kts 239°
2026-05-06 04:53 37.25565 -105.97525 35913 ft 391 kts 238°
2026-05-06 04:54 37.22314 -106.03013 35880 ft 390 kts 239°
2026-05-06 04:54 37.19097 -106.08457 35864 ft 390 kts 238°
2026-05-06 04:55 37.15860 -106.13934 35837 ft 390 kts 238°
2026-05-06 04:55 37.12620 -106.19411 35844 ft 390 kts 238°
2026-05-06 04:56 37.09394 -106.24856 35838 ft 391 kts 238°
2026-05-06 04:56 37.06154 -106.30314 35863 ft 392 kts 238°
2026-05-06 04:57 37.02897 -106.35790 35860 ft 392 kts 238°
2026-05-06 04:57 36.99633 -106.41271 35867 ft 392 kts 238°
2026-05-06 04:58 36.96382 -106.46723 35891 ft 393 kts 238°
2026-05-06 04:58 36.93103 -106.52213 35887 ft 394 kts 238°
2026-05-06 04:59 36.89816 -106.57704 35893 ft 394 kts 238°
2026-05-06 04:59 36.86546 -106.63156 35907 ft 393 kts 238°
2026-05-06 05:00 36.83266 -106.68620 35896 ft 392 kts 238°
2026-05-06 05:00 36.80018 -106.74020 35899 ft 390 kts 238°
2026-05-06 05:01 36.76755 -106.79440 35883 ft 390 kts 238°
2026-05-06 05:01 36.73497 -106.84843 35892 ft 388 kts 238°
2026-05-06 05:02 36.70274 -106.90172 35901 ft 386 kts 238°
2026-05-06 05:02 36.67043 -106.95512 35895 ft 386 kts 237°
2026-05-06 05:03 36.63804 -107.00857 35898 ft 385 kts 237°
2026-05-06 05:03 36.60586 -107.06158 35886 ft 386 kts 237°
2026-05-06 05:04 36.57345 -107.11489 35893 ft 386 kts 237°
2026-05-06 05:04 36.54098 -107.16823 35890 ft 387 kts 237°
2026-05-06 05:05 36.50837 -107.22171 35894 ft 387 kts 237°
2026-05-06 05:05 36.47582 -107.27501 35885 ft 388 kts 237°
2026-05-06 05:06 36.44312 -107.32846 35881 ft 388 kts 237°
2026-05-06 05:06 36.41051 -107.38171 35886 ft 389 kts 237°
2026-05-06 05:07 36.37778 -107.43509 35875 ft 389 kts 237°
2026-05-06 05:07 36.34493 -107.48859 35892 ft 389 kts 236°
2026-05-06 05:08 36.31210 -107.54199 35894 ft 389 kts 236°
2026-05-06 05:08 36.27942 -107.59506 35872 ft 390 kts 236°
2026-05-06 05:09 36.24639 -107.64863 35895 ft 390 kts 236°
2026-05-06 05:09 36.21327 -107.70223 35886 ft 391 kts 236°
2026-05-06 05:10 36.18024 -107.75550 35897 ft 391 kts 236°
2026-05-06 05:10 36.14704 -107.80897 35891 ft 392 kts 236°
2026-05-06 05:11 36.11394 -107.86221 35897 ft 392 kts 236°
2026-05-06 05:11 36.08064 -107.91571 35893 ft 392 kts 236°
2026-05-06 05:12 36.04732 -107.96916 35898 ft 392 kts 236°
2026-05-06 05:12 36.01407 -108.02239 35899 ft 392 kts 236°
2026-05-06 05:13 35.98075 -108.07568 35903 ft 392 kts 235°
2026-05-06 05:13 35.94759 -108.12862 35894 ft 392 kts 235°
2026-05-06 05:14 35.91415 -108.18193 35903 ft 392 kts 235°
2026-05-06 05:14 35.88073 -108.23513 35900 ft 392 kts 235°
2026-05-06 05:15 35.84743 -108.28804 35913 ft 392 kts 235°
2026-05-06 05:15 35.81391 -108.34123 35908 ft 393 kts 235°
2026-05-06 05:16 35.78031 -108.39447 35916 ft 393 kts 235°
2026-05-06 05:16 35.74683 -108.44744 35912 ft 393 kts 235°
2026-05-06 05:17 35.71317 -108.50060 35956 ft 394 kts 235°
2026-05-06 05:17 35.67938 -108.55390 35979 ft 394 kts 235°
2026-05-06 05:18 35.64568 -108.60696 36013 ft 395 kts 235°
2026-05-06 05:18 35.61180 -108.66023 36034 ft 395 kts 235°
2026-05-06 05:19 35.57782 -108.71358 36076 ft 396 kts 234°
2026-05-06 05:19 35.54400 -108.76660 36064 ft 396 kts 234°
2026-05-06 05:20 35.51000 -108.81984 36074 ft 396 kts 234°
2026-05-06 05:20 35.47596 -108.87290 36060 ft 395 kts 233°
2026-05-06 05:21 35.43888 -108.92272 36054 ft 397 kts 230°
2026-05-06 05:21 35.40056 -108.97155 36026 ft 397 kts 230°
2026-05-06 05:22 35.36226 -109.02048 36005 ft 397 kts 230°
2026-05-06 05:22 35.32443 -109.06913 35968 ft 396 kts 230°
2026-05-06 05:23 35.28638 -109.11820 35950 ft 396 kts 230°
2026-05-06 05:23 35.22956 -109.19138 35937 ft 396 kts 230°
2026-05-06 05:24 35.19160 -109.24019 35938 ft 396 kts 230°
2026-05-06 05:24 35.15355 -109.28903 35928 ft 396 kts 230°
2026-05-06 05:25 35.11550 -109.33781 35935 ft 396 kts 230°
2026-05-06 05:25 35.07759 -109.38633 35920 ft 396 kts 230°
2026-05-06 05:26 35.03940 -109.43513 35925 ft 396 kts 230°
2026-05-06 05:26 35.00153 -109.48346 35923 ft 396 kts 230°
2026-05-06 05:27 34.96331 -109.53218 35921 ft 397 kts 229°
2026-05-06 05:27 34.92504 -109.58088 35921 ft 397 kts 229°
2026-05-06 05:28 34.88683 -109.62945 35921 ft 397 kts 229°
2026-05-06 05:28 34.84876 -109.67778 35923 ft 397 kts 229°
2026-05-06 05:29 34.81048 -109.72640 35920 ft 397 kts 229°
2026-05-06 05:29 34.77255 -109.77475 35916 ft 397 kts 229°
2026-05-06 05:30 34.73427 -109.82346 35913 ft 398 kts 229°
2026-05-06 05:30 34.69997 -109.87563 35949 ft 394 kts 243°
2026-05-06 05:31 34.67783 -109.93603 35989 ft 394 kts 245°
2026-05-06 05:31 34.65546 -109.99711 36018 ft 396 kts 245°
2026-05-06 05:32 34.63287 -110.05796 36047 ft 398 kts 244°
2026-05-06 05:32 34.61009 -110.11893 36048 ft 386 kts 244°
2026-05-06 05:33 34.59906 -110.14843 35550 ft 380 kts 244°
2026-05-06 05:33 34.58828 -110.17721 34940 ft 379 kts 244°
2026-05-06 05:33 34.57734 -110.20635 34194 ft 381 kts 244°
2026-05-06 05:33 34.56632 -110.23569 33290 ft 384 kts 244°
2026-05-06 05:34 34.55517 -110.26536 32376 ft 388 kts 244°
2026-05-06 05:34 34.54401 -110.29506 32023 ft 377 kts 244°
2026-05-06 05:34 34.53336 -110.32340 31812 ft 362 kts 244°
2026-05-06 05:34 34.52313 -110.35058 31645 ft 355 kts 244°
2026-05-06 05:35 34.51299 -110.37750 31498 ft 348 kts 244°
2026-05-06 05:35 34.50290 -110.40422 31350 ft 350 kts 244°
2026-05-06 05:35 34.48193 -110.45966 30649 ft 375 kts 245°
2026-05-06 05:36 34.47103 -110.48843 30066 ft 375 kts 245°
2026-05-06 05:36 34.46029 -110.51677 29427 ft 373 kts 245°
2026-05-06 05:36 34.44948 -110.54530 28809 ft 371 kts 245°
2026-05-06 05:36 34.43873 -110.57363 28249 ft 369 kts 245°
2026-05-06 05:37 34.42803 -110.60182 27680 ft 367 kts 245°
2026-05-06 05:37 34.41733 -110.62998 27130 ft 366 kts 245°
2026-05-06 05:37 34.40682 -110.65761 26593 ft 365 kts 245°
2026-05-06 05:37 34.39614 -110.68567 26050 ft 365 kts 245°
2026-05-06 05:38 34.38908 -110.70423 25695 ft 365 kts 245°
2026-05-06 05:38 34.37838 -110.73232 25169 ft 366 kts 245°
2026-05-06 05:38 34.36420 -110.76945 24459 ft 368 kts 245°
2026-05-06 05:38 34.35691 -110.78804 24113 ft 368 kts 242°
2026-05-06 05:39 34.34214 -110.81314 23672 ft 363 kts 229°
2026-05-06 05:39 34.32486 -110.83506 23227 ft 357 kts 227°
2026-05-06 05:39 34.30766 -110.85666 22799 ft 356 kts 227°
2026-05-06 05:39 34.29052 -110.87833 22394 ft 356 kts 228°
2026-05-06 05:40 34.27345 -110.90010 21999 ft 354 kts 228°
2026-05-06 05:40 34.25679 -110.92148 21614 ft 351 kts 228°
2026-05-06 05:40 34.24027 -110.94275 21229 ft 342 kts 228°
2026-05-06 05:40 34.22394 -110.96381 20877 ft 344 kts 229°
2026-05-06 05:41 34.20736 -110.98522 20518 ft 349 kts 229°
2026-05-06 05:41 34.19093 -111.00641 20137 ft 340 kts 229°
2026-05-06 05:41 34.17506 -111.02688 19775 ft 337 kts 229°
2026-05-06 05:41 34.15883 -111.04781 19419 ft 342 kts 229°
2026-05-06 05:42 34.14257 -111.06874 19051 ft 340 kts 229°
2026-05-06 05:42 34.12661 -111.08926 18680 ft 329 kts 229°
2026-05-06 05:42 34.11122 -111.10899 18316 ft 318 kts 229°
2026-05-06 05:42 34.09600 -111.12853 17952 ft 320 kts 229°
2026-05-06 05:43 34.08086 -111.14800 17587 ft 322 kts 229°
2026-05-06 05:43 34.06557 -111.16764 17251 ft 318 kts 229°
2026-05-06 05:43 34.05045 -111.18703 16940 ft 316 kts 229°
2026-05-06 05:43 34.03532 -111.20643 16590 ft 317 kts 229°
2026-05-06 05:44 34.02047 -111.22545 16237 ft 314 kts 228°
2026-05-06 05:44 34.00556 -111.24456 15902 ft 311 kts 229°
2026-05-06 05:44 33.99073 -111.26355 15561 ft 311 kts 228°
2026-05-06 05:44 33.97583 -111.28263 15207 ft 311 kts 228°
2026-05-06 05:45 33.96097 -111.30165 14859 ft 310 kts 228°
2026-05-06 05:45 33.94619 -111.32054 14508 ft 308 kts 228°
2026-05-06 05:45 33.93168 -111.33908 14169 ft 306 kts 228°
2026-05-06 05:45 33.91715 -111.35764 13829 ft 304 kts 228°
2026-05-06 05:46 33.90268 -111.37610 13449 ft 301 kts 228°
2026-05-06 05:46 33.88842 -111.39426 13104 ft 293 kts 228°
2026-05-06 05:46 33.87402 -111.41122 12763 ft 287 kts 220°
2026-05-06 05:46 33.85768 -111.42549 12477 ft 294 kts 216°
2026-05-06 05:47 33.84063 -111.43943 12148 ft 295 kts 216°
2026-05-06 05:47 33.82401 -111.45328 11819 ft 292 kts 217°
2026-05-06 05:47 33.80752 -111.46727 11500 ft 289 kts 217°
2026-05-06 05:47 33.79119 -111.48124 11183 ft 287 kts 217°
2026-05-06 05:48 33.77496 -111.49516 10863 ft 286 kts 217°
2026-05-06 05:48 33.75870 -111.50913 10560 ft 288 kts 217°
2026-05-06 05:48 33.74243 -111.52311 10244 ft 286 kts 217°
2026-05-06 05:48 33.72644 -111.53683 9938 ft 288 kts 217°
2026-05-06 05:49 33.70981 -111.55113 9665 ft 298 kts 217°
2026-05-06 05:49 33.69286 -111.56570 9476 ft 298 kts 217°
2026-05-06 05:49 33.67636 -111.57984 9279 ft 281 kts 217°
2026-05-06 05:49 33.66104 -111.59295 8977 ft 265 kts 217°
2026-05-06 05:50 33.64636 -111.60552 8621 ft 254 kts 217°
2026-05-06 05:50 33.63211 -111.61757 8181 ft 247 kts 217°
2026-05-06 05:50 33.61809 -111.62929 7698 ft 243 kts 216°
2026-05-06 05:50 33.60443 -111.64071 7316 ft 235 kts 216°
2026-05-06 05:51 33.59125 -111.65172 6870 ft 231 kts 217°
2026-05-06 05:51 33.57815 -111.66266 6402 ft 228 kts 217°
2026-05-06 05:51 33.56518 -111.67350 5892 ft 226 kts 217°
2026-05-06 05:51 33.55225 -111.68435 5640 ft 226 kts 217°
2026-05-06 05:52 33.53956 -111.69508 5559 ft 220 kts 217°
2026-05-06 05:52 33.52706 -111.70564 5558 ft 219 kts 217°
2026-05-06 05:52 33.51453 -111.71625 5565 ft 222 kts 217°
2026-05-06 05:52 33.50216 -111.72669 5535 ft 217 kts 217°
2026-05-06 05:53 33.48996 -111.73696 5313 ft 207 kts 217°
2026-05-06 05:53 33.47829 -111.74680 5086 ft 200 kts 217°
2026-05-06 05:53 33.46751 -111.75689 4885 ft 192 kts 232°
2026-05-06 05:53 33.46076 -111.77032 4725 ft 187 kts 243°
2026-05-06 05:54 33.45450 -111.78358 4500 ft 183 kts 242°
2026-05-06 05:54 33.44823 -111.79663 4302 ft 178 kts 242°
2026-05-06 05:54 33.44307 -111.80991 4054 ft 173 kts 261°
2026-05-06 05:54 33.44180 -111.82407 3870 ft 171 kts 264°
2026-05-06 05:55 33.44091 -111.83805 3632 ft 165 kts 267°
2026-05-06 05:55 33.44067 -111.85144 3426 ft 162 kts 269°
2026-05-06 05:55 33.44063 -111.86464 3217 ft 153 kts 269°
2026-05-06 05:55 33.44062 -111.87734 3048 ft 154 kts 269°
2026-05-06 05:56 33.44074 -111.89010 2827 ft 151 kts 270°
2026-05-06 05:56 33.44100 -111.90228 2623 ft 141 kts 270°
2026-05-06 05:56 33.44113 -111.91377 2501 ft 135 kts 268°
2026-05-06 05:56 33.44108 -111.92472 2340 ft 130 kts 267°
2026-05-06 05:57 33.44085 -111.93571 2176 ft 133 kts 267°
2026-05-06 05:57 33.44077 -111.94661 2011 ft 133 kts 268°
2026-05-06 05:57 33.44074 -111.95766 1803 ft 138 kts 270°
2026-05-06 05:57 33.44086 -111.96939 1594 ft 139 kts 267°
2026-05-06 05:58 33.44081 -111.98038 1365 ft 129 kts 268°
2026-05-06 05:58 33.44079 -111.99100 1188 ft 126 kts 270°
2026-05-06 05:58 33.44080 -112.00037 1133 ft 93 kts 270°
2026-05-06 05:58 33.44083 -112.00594 1127 ft 51 kts 269°
2026-05-06 05:59 33.44084 -112.00887 1128 ft 30 kts 271°
2026-05-06 05:59 33.44053 -112.01054 1134 ft 16 kts 236°
2026-05-06 05:59 33.43986 -112.01038 1133 ft 12 kts 114°
2026-05-06 05:59 33.43976 -112.00942 1122 ft 12 kts 93°
2026-05-06 06:00 33.43974 -112.00844 1123 ft 12 kts 91°
2026-05-06 06:00 33.43973 -112.00746 1123 ft 12 kts 90°
2026-05-06 06:00 33.43974 -112.00647 1122 ft 14 kts 88°
2026-05-06 06:00 33.43975 -112.00478 1122 ft 22 kts 90°
2026-05-06 06:01 33.43972 -112.00296 1126 ft 22 kts 91°
2026-05-06 06:01 33.43974 -112.00115 1132 ft 22 kts 89°
2026-05-06 06:01 33.43974 -111.99934 1123 ft 21 kts 91°
2026-05-06 06:01 33.43977 -111.99763 1133 ft 21 kts 89°
2026-05-06 06:02 33.43973 -111.99593 1132 ft 21 kts 91°
2026-05-06 06:02 33.43971 -111.99421 1130 ft 21 kts 89°
2026-05-06 06:02 33.43968 -111.99280 1131 ft 16 kts 108°
2026-05-06 06:02 33.43921 -111.99245 1133 ft 2 kts 182°
2026-05-06 06:03 33.43909 -111.99248 1122 ft 6 kts 194°
2026-05-06 06:03 33.43875 -111.99281 1119 ft 2 kts 229°
2026-05-06 06:03 33.43859 -111.99304 1123 ft 12 kts 230°
2026-05-06 06:03 33.43825 -111.99355 1119 ft 4 kts 232°
2026-05-06 06:04 33.43821 -111.99361 1122 ft 0 kts 231°
2026-05-06 06:04 33.43815 -111.99370 1121 ft 2 kts 231°
2026-05-06 06:04 33.43814 -111.99370 1121 ft 0 kts 231°